Location: Newark
(43.4306°N, 0.3089°E)
Time: 07:14:36
(UTC+00:00)

Vanguard 3 - Pass Details

Date: 02 September 2019
Orbit: 508 x 3263 km, 33.4° (Epoch: 14 September)

Event Time Altitude Azimuth Distance (km) Brightness Sun altitude
Rises 15:58:20 0° 260° (W) 6,287 13.0 27.0°
Reaches altitude 10° 16:03:19 10° 256° (WSW) 4,846 13.0 26.1°
Maximum altitude 16:14:52 45° 190° (S) 1,940 9.6 24.1°
Drops below altitude 10° 16:21:34 10° 119° (ESE) 2,840 9.6 22.9°
Sets 16:23:45 0° 113° (ESE) 3,534 10.0 22.5°
